Regional Weather Roundup
Issued by NWS Green Bay, WI

Home | Current Version | Previous Version | Graphics & Text | Print | Product List | Glossary Off
Versions: 1 2 3 4 5 6 7 8 9 10 11 12 13 14 15 16 17 18 19 20 21 22 23 24 25 26 27 28 29 30 31 32 33 34 35 36 37 38 39 40 41 42 43 44 45 46 47 48 49 50

000
ASUS43 KGRB 240659
RWRGRB

NORTH-CENTRAL AND NORTHEAST WISCONSIN REGIONAL WEATHER ROUNDUP
NATIONAL WEATHER SERVICE GREEN BAY WI
100 AM CST TUE JAN 24 2017

WIZ005-009-010>012-018-019-240800-
NORTH CENTRAL WISCONSIN

CITY           SKY/WX    TMP DP  RH WIND       PRES   REMARKS
IRONWOOD       CLOUDY    34  33  96 W6        29.80
MANITOWISH WTR NOT AVBL
ARBOR VITAE    NOT AVBL
EAGLE RIVER    NOT AVBL
LAND O LAKES   NOT AVBL
RHINELANDER    CLOUDY    35  35 100 CALM      29.78S
PHILLIPS       CLOUDY    32  32 100 CALM      29.79S
ANTIGO         NOT AVBL
TOMAHAWK       NOT AVBL
MERRILL        NOT AVBL
$$

WIZ013-073-240800-
NORTHEAST WISCONSIN

CITY           SKY/WX    TMP DP  RH WIND       PRES   REMARKS
IRON MOUNTAIN  CLOUDY    34  32  92 CALM      29.76S FOG
MARINETTE      NOT AVBL
$$

WIZ017-030-035>037-045-240800-
CENTRAL WISCONSIN

CITY           SKY/WX    TMP DP  RH WIND       PRES   REMARKS
MEDFORD        NOT AVBL
WAUSAU         CLOUDY    34  34 100 NW3       29.78F
MOSINEE        NOT AVBL
MARSHFIELD     CLOUDY    33  31  92 NW7       29.80R
WISC RAPIDS    CLOUDY    34  34 100 NW5       29.82S FOG
STEVENS POINT  NOT AVBL
WAUPACA        NOT AVBL
SHAWANO        NOT AVBL
CLINTONVILLE   CLOUDY    36  34  93 NW5       29.79F
WAUTOMA        CLOUDY    34  33  96 W8        29.82S FOG
$$

WIZ038-039-048-051-240800-
FOX VALLEY

CITY           SKY/WX    TMP DP  RH WIND       PRES   REMARKS
NWS GREEN BAY  CLOUDY    36  35  96 CALM      29.78F
APPLETON       NOT AVBL
OSHKOSH        CLOUDY    34  33  96 W6        29.79S
FOND DU LAC    CLOUDY    35  32  88 W6        29.79S
$$

WIZ022-050-052-240800-
EAST CENTRAL WISCONSIN

CITY           SKY/WX    TMP DP  RH WIND       PRES   REMARKS
EPHRAIM        NOT AVBL
WASHINGTON ISL NOT AVBL
STURGEON BAY   FOG       32  32 100 CALM      29.79S VSB 1/4
MANITOWOC      NOT AVBL
SHEBOYGAN      CLOUDY    34  32  92 W3        29.78F
$$

LMZ563-521-522-541>543-240800-
LAKESHORE

STATION/POSITION TIME  TEMP    WIND        PRES    VSBY  WAVE
                       AIR SEA DIR/SP/G                  HT/PER
                 (UTC) (F)     (DEG/KT/KT) (MB)    (MI)  (FT/S)
SHEBOYGAN LKSHOR 0600   36     270/  4/  4 1009.1F
KEWAUNEE LKSHORE 0624   35     310/  2/  3 1008.3
NORTHPORT PIER   0640   33     300/  3/  5 1008.5F
SISTER BAY LKSHO 0605   32        CALM       N/A
MENOMINEE LKSHOR 0624   33     320/  5/  5 1008.0
$$



USA.gov is the U.S. government's official web portal to all federal, state and local government web resources and services.